Airfield :
LOGIN :

Register | Disclaimer

   EN    FR    IT 

 










Legend :    VFR   Marginal VFR   IFR   Intensive IFR   Very Intensive IFR
Visi :
Ceiling :
>= 8 km
>= 3000ft
5 to 8 km
1000 to 3000 ft
1500m to 5 km
500 to 1000 ft
800 to 1500m
200 to 500 ft
< 800m
< 200 ft
Symbols :   Thunderstorms  Fog  Heavy snow  Heavy precipitations  Wind > 20 kt
SIGMETs :     Misc.  Thunderstorms  Icing  Turbulence  Mountain Waves  Volcanic Ashes







- Airport Elevation : 782 ft
- IATA code : BGY


LIME - Orio al Serio International - Bergamo

CURRENT METAR :
  • 171220Z 21004KT 140V250 CAVOK 14/01 Q1027 NOSIG

EXPIRED METARs :
  • 171150Z 20003KT 150V260 CAVOK 14/01 Q1027 NOSIG
  • 171120Z 22004KT 180V260 CAVOK 13/02 Q1028 NOSIG
  • 171050Z 22004KT 190V260 CAVOK 12/02 Q1028 NOSIG
  • 171020Z 19003KT 150V240 CAVOK 12/02 Q1028 NOSIG
  • 170920Z VRB01KT CAVOK 11/00 Q1028 NOSIG

TAF TAF LIME
Valid from the 17 at 12:00 until the 18 at 12:00 UTC


171100Z 1712/1812 VRB05KT CAVOK
TEMPO 1714/1718 4000 BR
No reported NOTAMs for that airfield.



MET'MAP, your aeronautical weather chart ! - Copyright ORBIFLY December 2007 - Disclaimer

ORBIFLY MET'MAP TEAM :

Programming & Development : Alexandra Zaïnal
Concept & Development : Baudouin d'Aumeries
Co-Development & Prog : Marc-Olivier Méhu
Technical & hardware support : Manuel Goepfert

Contact : metmap@orbifly.com




SOURCES & CREDITS :

   NOAA